• In France
  • List of Countries
  • For 7 days
  • Water Temperature
  • Satellite Maps
  • Weather Map
  • Weather Widgets
  • user-avatar
    Login

    Hourly Weather Daloa

    Today, 14 December, Thursday

    Time Temperature Precipitation Wind Pressure Humidity
    00:00 +26°C° 0 mm 1 mps 736 mmHg 82%
    01:00 +25°C° 0 mm 1 mps 736 mmHg 86%
    02:00 +25°C° 0 mm 1 mps 736 mmHg 89%
    03:00 +25°C° 0 mm 1 mps 736 mmHg 92%
    04:00 +25°C° 0 mm 1 mps 736 mmHg 93%
    05:00 +24°C° 0 mm 1 mps 736 mmHg 95%
    06:00 +24°C° 0 mm 1 mps 736 mmHg 97%
    07:00 +26°C° 0 mm 1 mps 736 mmHg 88%
    08:00 +27°C° 0 mm 1 mps 737 mmHg 80%
    09:00 +29°C° 0 mm 1 mps 737 mmHg 71%
    10:00 +32°C° 0 mm 1 mps 737 mmHg 61%
    11:00 +34°C° 0 mm 1 mps 737 mmHg 51%
    12:00 +35°C° 0 mm 0 mps 737 mmHg 41%
    13:00 +37°C° 0 mm 1 mps 736 mmHg 41%
    14:00 +36°C° 0 mm 1 mps 736 mmHg 40%
    15:00 +36°C° 0 mm 1 mps 735 mmHg 39%
    16:00 +34°C° 0 mm 1 mps 735 mmHg 43%
    17:00 +33°C° 0 mm 1 mps 735 mmHg 47%
    18:00 +32°C° 0 mm 1 mps 735 mmHg 51%
    19:00 +31°C° 0 mm 1 mps 736 mmHg 56%
    20:00 +30°C° 0 mm 1 mps 736 mmHg 60%
    21:00 +29°C° 0 mm 1 mps 736 mmHg 65%
    22:00 +28°C° 0 mm 1 mps 736 mmHg 70%
    23:00 +27°C° 0 mm 1 mps 736 mmHg 76%

    Tomorrow, 15 December, Friday

    Time Temperature Precipitation Wind Pressure Humidity
    00:00 +27°C° 0 mm 1 mps 737 mmHg 81%
    01:00 +26°C° 0 mm 1 mps 736 mmHg 84%
    02:00 +26°C° 0 mm 1 mps 736 mmHg 86%
    03:00 +25°C° 0 mm 1 mps 736 mmHg 89%
    04:00 +25°C° 0 mm 1 mps 736 mmHg 91%
    05:00 +25°C° 0 mm 1 mps 736 mmHg 93%
    06:00 +25°C° 0 mm 1 mps 736 mmHg 94%
    07:00 +26°C° 0 mm 1 mps 737 mmHg 87%
    08:00 +27°C° 0 mm 1 mps 737 mmHg 80%
    09:00 +29°C° 0 mm 1 mps 737 mmHg 72%
    10:00 +30°C° 0 mm 1 mps 737 mmHg 67%
    11:00 +31°C° 0 mm 1 mps 737 mmHg 61%
    12:00 +33°C° 0 mm 1 mps 736 mmHg 55%
    13:00 +33°C° 0.2 mm 1 mps 736 mmHg 53%
    14:00 +34°C° 0.2 mm 1 mps 735 mmHg 50%
    15:00 +35°C° 0.2 mm 1 mps 734 mmHg 47%
    16:00 +33°C° 0.1 mm 1 mps 734 mmHg 52%
    17:00 +32°C° 0.1 mm 1 mps 734 mmHg 57%
    18:00 +31°C° 0.1 mm 1 mps 735 mmHg 62%
    19:00 +29°C° 0.2 mm 1 mps 735 mmHg 69%
    20:00 +28°C° 0.2 mm 1 mps 736 mmHg 76%
    21:00 +27°C° 0.2 mm 1 mps 736 mmHg 82%
    22:00 +26°C° 0 mm 2 mps 736 mmHg 84%
    23:00 +26°C° 0 mm 2 mps 736 mmHg 86%

    Day after tomorrow, 16 December, Saturday

    Time Temperature Precipitation Wind Pressure Humidity
    00:00 +26°C° 0 mm 2 mps 736 mmHg 88%
    01:00 +25°C° 0 mm 2 mps 736 mmHg 90%
    02:00 +25°C° 0 mm 2 mps 736 mmHg 92%
    03:00 +25°C° 0 mm 1 mps 735 mmHg 93%
    04:00 +25°C° 0 mm 1 mps 736 mmHg 93%
    05:00 +25°C° 0 mm 1 mps 736 mmHg 94%
    06:00 +25°C° 0 mm 1 mps 736 mmHg 94%
    07:00 +26°C° 0 mm 1 mps 736 mmHg 88%
    08:00 +27°C° 0 mm 1 mps 737 mmHg 83%
    09:00 +28°C° 0 mm 1 mps 738 mmHg 77%
    10:00 +30°C° 0 mm 1 mps 737 mmHg 67%
    11:00 +33°C° 0 mm 1 mps 737 mmHg 57%
    12:00 +35°C° 0 mm 1 mps 737 mmHg 46%
    13:00 +35°C° 0.1 mm 1 mps 736 mmHg 45%
    14:00 +35°C° 0.1 mm 1 mps 735 mmHg 44%
    15:00 +33°C° 0.1 mm 0 mps 735 mmHg 43%
    16:00 +32°C° 0 mm 0 mps 735 mmHg 47%
    17:00 +33°C° 0 mm 1 mps 735 mmHg 51%
    18:00 +31°C° 0 mm 1 mps 735 mmHg 54%
    19:00 +30°C° 0.1 mm 1 mps 735 mmHg 61%
    20:00 +29°C° 0.1 mm 1 mps 736 mmHg 68%
    21:00 +27°C° 0.1 mm 1 mps 737 mmHg 75%
    22:00 +27°C° 0 mm 1 mps 737 mmHg 79%
    23:00 +26°C° 0 mm 1 mps 737 mmHg 82%

    17 December, Sunday

    Time Temperature Precipitation Wind Pressure Humidity
    00:00 +26°C° 0 mm 1 mps 737 mmHg 86%
    01:00 +25°C° 0 mm 1 mps 736 mmHg 88%
    02:00 +25°C° 0 mm 1 mps 736 mmHg 89%
    03:00 +25°C° 0 mm 1 mps 735 mmHg 91%
    04:00 +25°C° 0 mm 1 mps 735 mmHg 92%
    05:00 +24°C° 0 mm 1 mps 735 mmHg 93%
    06:00 +24°C° 0 mm 1 mps 736 mmHg 94%
    07:00 +25°C° 0 mm 1 mps 736 mmHg 87%
    08:00 +27°C° 0 mm 1 mps 737 mmHg 81%
    09:00 +28°C° 0 mm 2 mps 737 mmHg 74%
    10:00 +31°C° 0 mm 1 mps 737 mmHg 64%
    11:00 +33°C° 0 mm 1 mps 736 mmHg 54%
    12:00 +36°C° 0 mm 1 mps 736 mmHg 44%
    13:00 +37°C° 0 mm 1 mps 735 mmHg 40%
    14:00 +36°C° 0 mm 0 mps 734 mmHg 35%
    15:00 +37°C° 0 mm 0 mps 733 mmHg 31%
    16:00 +35°C° 0 mm 0 mps 733 mmHg 35%
    17:00 +33°C° 0 mm 0 mps 733 mmHg 39%
    18:00 +31°C° 0 mm 0 mps 734 mmHg 44%
    19:00 +32°C° 0 mm 1 mps 734 mmHg 47%
    20:00 +30°C° 0 mm 1 mps 735 mmHg 51%
    21:00 +29°C° 0 mm 1 mps 736 mmHg 55%
    22:00 +28°C° 0 mm 1 mps 736 mmHg 62%
    23:00 +28°C° 0 mm 2 mps 736 mmHg 69%

    18 December, Monday

    Time Temperature Precipitation Wind Pressure Humidity
    00:00 +27°C° 0 mm 2 mps 736 mmHg 76%
    01:00 +27°C° 0 mm 2 mps 736 mmHg 81%
    02:00 +26°C° 0 mm 2 mps 735 mmHg 85%
    03:00 +26°C° 0 mm 2 mps 735 mmHg 89%
    04:00 +26°C° 0 mm 2 mps 735 mmHg 89%
    05:00 +26°C° 0 mm 2 mps 735 mmHg 90%
    06:00 +25°C° 0 mm 2 mps 736 mmHg 90%
    07:00 +26°C° 0 mm 2 mps 736 mmHg 86%
    08:00 +27°C° 0 mm 2 mps 737 mmHg 83%
    09:00 +27°C° 0 mm 2 mps 737 mmHg 79%
    10:00 +28°C° 0 mm 2 mps 737 mmHg 76%
    11:00 +29°C° 0 mm 2 mps 736 mmHg 72%
    12:00 +30°C° 0 mm 1 mps 736 mmHg 69%
    13:00 +31°C° 0 mm 1 mps 735 mmHg 64%
    14:00 +32°C° 0 mm 1 mps 734 mmHg 60%
    15:00 +33°C° 0 mm 1 mps 734 mmHg 55%
    16:00 +32°C° 0 mm 1 mps 734 mmHg 59%
    17:00 +31°C° 0 mm 1 mps 734 mmHg 63%
    18:00 +30°C° 0 mm 1 mps 734 mmHg 67%
    19:00 +29°C° 0 mm 1 mps 735 mmHg 71%
    20:00 +28°C° 0 mm 1 mps 735 mmHg 76%
    21:00 +27°C° 0 mm 2 mps 736 mmHg 80%
    22:00 +27°C° 0 mm 2 mps 736 mmHg 83%
    23:00 +26°C° 0 mm 2 mps 736 mmHg 86%

    19 December, Tuesday

    Time Temperature Precipitation Wind Pressure Humidity
    00:00 +26°C° 0 mm 2 mps 736 mmHg 89%
    01:00 +25°C° 0 mm 1 mps 735 mmHg 91%
    02:00 +25°C° 0 mm 1 mps 735 mmHg 93%
    03:00 +24°C° 0 mm 1 mps 735 mmHg 95%
    04:00 +24°C° 0 mm 1 mps 735 mmHg 95%
    05:00 +24°C° 0 mm 1 mps 735 mmHg 95%
    06:00 +24°C° 0 mm 1 mps 736 mmHg 95%
    07:00 +25°C° 0 mm 1 mps 736 mmHg 89%
    08:00 +26°C° 0 mm 2 mps 737 mmHg 84%
    09:00 +27°C° 0 mm 2 mps 737 mmHg 78%
    10:00 +29°C° 0 mm 2 mps 737 mmHg 71%
    11:00 +31°C° 0 mm 2 mps 737 mmHg 63%
    12:00 +34°C° 0 mm 2 mps 736 mmHg 55%
    13:00 +34°C° 0 mm 2 mps 735 mmHg 51%
    14:00 +34°C° 0 mm 1 mps 735 mmHg 47%
    15:00 +35°C° 0 mm 1 mps 734 mmHg 44%
    16:00 +34°C° 0 mm 1 mps 734 mmHg 49%
    17:00 +32°C° 0 mm 1 mps 734 mmHg 54%
    18:00 +31°C° 0 mm 1 mps 734 mmHg 59%
    19:00 +30°C° 0 mm 1 mps 735 mmHg 64%
    20:00 +28°C° 0 mm 1 mps 735 mmHg 70%
    21:00 +27°C° 0 mm 1 mps 736 mmHg 76%
    22:00 +27°C° 0 mm 1 mps 736 mmHg 80%
    23:00 +26°C° 0 mm 1 mps 736 mmHg 84%
    Show more